Simultaneous Nadir Overpasses (SNOs) Predictions

Prediction of SNOs between AQUA and METOP-B Satellite Orbit:

Table of predicted SNOs for the next 14.0 days since TLE Epoch: 11/16/2012
Index Date (AQUA) Time (AQUA) AQUA Lat,Lon Date (METOP-B) Time (METOP-B) METOP-B Lat,Lon Distance(km) Time Diff (sec)
1 11/18/2012 14:47:13 73.77, -47.55 11/18/2012 14:46:23 73.75, -47.44 3.81 50
2 11/18/2012 15:36:39 -73.79, 120.04 11/18/2012 15:37:05 -73.78, 119.94 3.62 26
3 11/21/2012 10:21:33 73.75, 18.91 11/21/2012 10:20:48 73.73, 18.91 2.60 45
4 11/21/2012 11:11:00 -73.82,-173.61 11/21/2012 11:11:29 -73.81,-173.58 2.19 29
5 11/24/2012 05:55:54 73.75, 85.31 11/24/2012 05:55:12 73.73, 85.33 2.67 42
6 11/24/2012 06:45:21 -73.82,-107.19 11/24/2012 06:45:53 -73.81,-107.15 1.64 32
7 11/27/2012 01:30:14 73.73, 151.79 11/27/2012 01:29:35 73.71, 151.70 2.95 39
8 11/27/2012 02:19:41 -73.79, -40.71 11/27/2012 02:20:16 -73.80, -40.77 2.15 35
9 11/29/2012 21:04:36 73.72,-141.79 11/29/2012 21:03:58 73.73,-141.85 2.12 38
10 11/29/2012 21:54:04 -73.83, 25.61 11/29/2012 21:54:39 -73.82, 25.69 2.81 35




NCC Satellite Simultaneous Nadir Overpasses (SNOs) Prediction Service
